sat.trackr.live / text

‹ back to catalog

STARLINK-31913

NORAD 59667 · 2024-084P

PAYLOAD ACTIVE UNKNOWN

§ Identity

Operator
Country
US
Launch date
2024-05-06
Launch site
AFETR
Launch vehicle
Mass (kg)
RCS (m²)

Purposes: comms

External: N2YO · Heavens-Above · Gunter

§ Orbital elements

Epoch: 2026-09-21T15:23:13.163712Z

Period
94.27 min
Inclination
43.0029°
Eccentricity
0.0001504
Mean motion
15.27580712 rev/d
Perigee alt
482.0 km
Apogee alt
484.1 km
Semi-major
6,861.2 km
B*
-7.1242e-6
RAAN
11.5089°
Arg perigee
276.4114°
Mean anomaly
83.6566°
Rev number
13,438

§ Raw data

STARLINK-319131 59667U 24084P   26264.64112458 -.00000458  00000+0 -71242-5 0  99912 59667  43.0029  11.5089 0001504 276.4114  83.6566 15.27580712134383

JSON: /api/v1/satellites/59667 · /tle

For live sub-satellite position, see the globe view (requires WebGL).

§ Visibility from observer

Set your observer location to see the next 7 days of passes ≥ 10°. The values pass through the URL so the page stays shareable.

No JS? Fill the form by hand. The geolocation button needs JavaScript.